Regional Weather Roundup
Issued by NWS Jackson, KY

Home | Current Version | Previous Version | Text Only | Print | Product List | Glossary Off
Versions: 1 2 3 4 5 6 7 8 9 10 11 12 13 14 15 16 17 18 19 20 21 22 23 24 25 26 27 28 29 30 31 32 33 34 35 36 37 38 39 40 41 42 43 44 45 46 47 48 49 50

000
ASUS43 KJKL 200810
RWRJKL

EAST KENTUCKY HOURLY WEATHER ROUNDUP
NATIONAL WEATHER SERVICE JACKSON KY
300 AM EST SAT JAN 20 2018

NOTE: "FAIR" INDICATES FEW OR NO CLOUDS BELOW 12,000 FEET WITH
NO SIGNIFICANT WEATHER AND/OR OBSTRUCTIONS TO VISIBILITY.

* THESE REPORTS ARE NOT UNDER NWS QUALITY CONTROL AND MAY NOT
  REPORT WEATHER SUCH AS PRECIPITATION AND FOG.

KYZ079-080-083-085-087-088-110-112-115-119-120-200900
...EASTERN KENTUCKY...

CITY           SKY/WX    TMP DP  RH WIND       PRES   REMARKS
JACKSON        CLOUDY    38  22  52 SW5       30.13R WCI  34
LONDON         CLOUDY    40  27  59 S7        30.16R
SOMERSET*      CLOUDY    36  23  60 S7        30.18R WCI  30
MONTICELLO*    CLOUDY    44  30  57 SW17      30.18R
WILLIAMSBURG*  PTSUNNY   41  30  65 S7        30.17S
MIDDLESBORO*   CLOUDY    27  23  84 CALM      30.22S
HARLAN APT*    CLOUDY    28  23  80 CALM      30.19R
PIKE CO APT*   CLOUDY    39  25  55 S7        30.14R WCI  34
BIG SANDY APT* CLOUDY    40  24  51 SW8       30.13R WCI  35
MOREHEAD APT*  CLOUDY    39  27  60 SW14G21   30.12R WCI  31
ASHLAND*       MOCLDY    29  24  82 CALM      30.11R
$$

KYZ035-036-041-042-044-050-067-078-099-200900
...CENTRAL KENTUCKY...

CITY           SKY/WX    TMP DP  RH WIND       PRES   REMARKS
MT STERLING*   CLOUDY    37  27  65 SW12      30.11S WCI  30
FLEMING/MASON* MOCLDY    37  25  61 SW13G18   30.09R WCI  29
DANVILLE*      CLOUDY    37  27  65 SW7       30.13R WCI  32
LEXINGTON      CLOUDY    39  27  62 S13       30.10R WCI  31
FRANKFORT        N/A     39  24  55 SW12      30.08R WCI  32
LOUISVILLE       N/A     40  26  57 SW7       30.09R
LEBANON*       CLOUDY    39  25  56 S14       30.11R WCI  31
GLASGOW*       CLOUDY    41  24  51 SW7       30.14R
BOWLING GREEN  MOCLDY    40  26  57 S7        30.14R
$$

KYZ091>093-OHZ055-061-077-WVZ005-015-034-035-042-200900
...SOUTHERN OHIO/WEST VIRGINIA...

CITY           SKY/WX    TMP DP  RH WIND       PRES   REMARKS
COVINGTON      MOCLDY    36  25  64 SW13      30.01S WCI  27
COLUMBUS       MOCLDY    31  21  66 S6        29.99R WCI  25
DAYTON         MOCLDY    32  23  69 SW15      29.97R WCI  22
WILMINGTON       N/A     33  24  69 SW21      29.99R WCI  21
HUNTINGTON     CLOUDY    37  16  42 S10       30.11R WCI  30
CHARLESTON       N/A     36  18  48 SW3       30.11R
BECKLEY        MOCLDY    30   6  36 W3        30.12R
BLUEFIELD        N/A     32   3  29 W9        30.12R WCI  24
LOGAN CO APT*  CLOUDY    36  16  44 CALM      30.13R
$$

VAZ002-007-008-TNZ017-027-036-066-071-200900
...SOUTHWEST VIRGINIA/EAST TENNESSEE...

CITY           SKY/WX    TMP DP  RH WIND       PRES   REMARKS
WISE*            N/A     34  18  51 SW15G24   30.15R WCI  24
JONESVILLE*    CLOUDY    25  19  80 CALM      30.24S
ABINGDON*        N/A     27  12  53 CALM      30.19R
BRISTOL          N/A     20  15  81 CALM      30.23R
MORRISTOWN*    CLOUDY    30  14  51 CALM      30.22R
SEVIERVILLE*   CLOUDY    25  21  86 CALM      30.24S
KNOXVILLE      CLOUDY    37  24  59 W8        30.22S WCI  31
LAFOLLETTE*    CLOUDY    28  25  86 CALM      30.25S
OAK RIDGE      CLOUDY    33  24  69 CALM      30.25R
CROSSVILLE     CLOUDY    40  25  55 S7        30.19R
NASHVILLE      CLOUDY    45  26  47 S10       30.17S
$$

...KEY TO REMARKS...
VSB - VISIBILITY IN MILES
WCI - WIND CHILL INDEX
HX  - HEAT INDEX

$$



USA.gov is the U.S. government's official web portal to all federal, state and local government web resources and services.